Location: Atherton
(17.2661°S, 145.4859°E)
Time: 22:13:48
(UTC+10:00)

Transit 2A - Pass Details

Date: 25 June 2025
Orbit: 598 x 948 km, 66.7° (Epoch: 19 July)

Event Time Altitude Azimuth Distance (km) Brightness Sun altitude
Rises 20:19:59 0° 202° (SSW) 3,354 9.4 -33.6°
Enters shadow 20:20:23 - 202° (SSW) 3,197 9.3 -33.7°
Reaches altitude 10° 20:22:33 10° 202° (SSW) 2,360 - -34.2°
Maximum altitude 20:27:56 87° 291° (WNW) 736 - -35.4°
Drops below altitude 10° 20:32:44 10° 19° (NNE) 2,110 - -36.5°
Sets 20:34:55 0° 20° (NNE) 2,973 - -37.0°
